Flag for Madagascar Weather past 2 weeks in Antsirabe, Madagascar

Now
72 °F

Passing clouds.


Feels Like: 72 °F
Forecast: 53 / 81 °F
Wind: 13 mph from East

Location: Antananarivo / Ivato

Current Time: Dec 27, 2014 at 6:48:55 PM

Latest Report: Dec 27, 2014 at 6:30 PM


Visibility: N/A

Pressure: 30.09 "Hg

Humidity: 78%

Dew point: 64 °F

Location of AntsirabeLocation

Historic Weather in Antsirabe — Graph

°F

Antsirabe temperature yesterday

Maximum temperature yesterday: 84 °F (at 3:30 PM)
Minimum temperature yesterday: 66 °F (at 12:00 AM)
Average temperature yesterday: 73 °F

Past Weeks' High & Low Weather Summary

 TemperatureHumidityPressure
High88 °F (Dec 13, 12:30 PM)100% (Dec 12, 9:00 PM)30.24 "Hg (Dec 12, 9:00 PM)
Low61 °F (Dec 14, 8:30 PM)48% (Dec 27, 11:30 AM)29.98 "Hg (Dec 26, 4:00 PM)
Average72 °F91%30.11 "Hg
* Reported Dec 12 6:00 PM — Dec 27 6:00 PM, Antsirabe, Weather by CustomWeather, © 2014

Note: Actual official high and low records may vary slightly from our data, if they occured in-between our weather recording intervals... More about our weather records

Advertising

Antsirabe weather history for previous 24 hours

 ConditionsComfort  
Time TempWeatherWind HumidityBarometerVisibility
6:00 PM
Dec 27
75 °FPassing clouds.15 mph69%30.07 "HgN/A
5:30 PM77 °FScattered clouds.10 mph61%30.07 "HgN/A
5:00 PM79 °FScattered clouds.10 mph54%30.07 "HgN/A
4:30 PM81 °FScattered clouds.7 mph54%30.07 "HgN/A
4:00 PM81 °FScattered clouds.7 mph62%30.07 "HgN/A
3:30 PM81 °FPartly sunny.9 mph58%30.07 "HgN/A
3:00 PM81 °FPartly sunny.7 mph58%30.07 "HgN/A
2:30 PM81 °FScattered clouds.9 mph54%30.07 "HgN/A
2:00 PM81 °FScattered clouds.9 mph62%30.07 "HgN/A
1:30 PM81 °FScattered clouds.8 mph58%30.07 "HgN/A
1:00 PM81 °FPassing clouds.12 mph54%30.07 "HgN/A
12:30 PM81 °FPassing clouds.10 mph54%30.07 "HgN/A
12:00 PM81 °FPassing clouds.10 mph48%30.07 "HgN/A
11:30 AM81 °FPassing clouds.10 mph48%30.07 "HgN/A
11:00 AM79 °FPassing clouds.8 mph54%30.09 "HgN/A
10:30 AM77 °FPassing clouds.6 mph65%30.09 "HgN/A
10:00 AM77 °FPassing clouds.6 mph69%30.12 "HgN/A
9:30 AM73 °FPassing clouds.6 mph78%30.12 "HgN/A
9:00 AM73 °FPassing clouds.5 mph83%30.12 "HgN/A
8:30 AM70 °FPassing clouds.7 mph83%30.12 "HgN/A
8:00 AM70 °FPassing clouds.5 mph88%30.12 "HgN/A
7:30 AM70 °FPassing clouds.5 mph94%30.12 "HgN/A
6:30 AM63 °FScattered clouds.5 mph100%30.12 "HgN/A
6:00 AM61 °FScattered clouds.3 mph100%30.12 "HgN/A
5:30 AM61 °FScattered clouds.No wind100%30.12 "HgN/A
5:00 AM61 °FPassing clouds.5 mph100%30.09 "HgN/A
4:30 AM61 °FPassing clouds.6 mph100%30.09 "HgN/A
4:00 AM63 °FPartly cloudy.6 mph100%30.09 "HgN/A
3:30 AM63 °FPartly cloudy.2 mph100%30.09 "HgN/A
3:00 AM63 °FPartly cloudy.6 mph100%30.09 "HgN/A
2:30 AM63 °FPartly cloudy.7 mph100%30.09 "HgN/A
2:00 AM64 °FPartly cloudy.5 mph100%30.09 "HgN/A
1:30 AM64 °FPartly cloudy.6 mph100%30.09 "HgN/A
1:00 AM64 °FPartly cloudy.8 mph100%30.07 "HgN/A
12:00 AM66 °FPartly cloudy.7 mph100%30.12 "HgN/A
11:30 PM
Dec 26
66 °FPartly cloudy.6 mph100%30.12 "HgN/A
11:00 PM66 °FPartly cloudy.8 mph100%30.12 "HgN/A
10:00 PM68 °FPartly cloudy.8 mph100%30.12 "HgN/A
9:30 PM68 °FThunderstorms. Partly cloudy.12 mph100%30.12 "HgN/A
9:00 PM68 °FThunderstorms. Partly cloudy.12 mph100%30.12 "HgN/A
8:30 PM68 °FThunderstorms. Partly cloudy.10 mph100%30.12 "HgN/A
8:00 PM68 °FThunderstorms. Partly cloudy.10 mph100%30.09 "HgN/A
7:30 PM68 °FThunderstorms. Partly cloudy.12 mph100%30.09 "HgN/A
7:00 PM68 °FThunderstorms. Partly cloudy.7 mph100%30.07 "Hg5 mi
6:30 PM68 °FThunderstorms. Partly cloudy.7 mph100%30.07 "Hg5 mi
6:00 PM73 °FThunderstorms. Broken clouds.10 mph83%30.04 "Hg5 mi
Weather by CustomWeather, © 2014

See weather overviewHow to use our weather pages